This demonstration page uses our WeatherBlox Daily Observations layout. Learn more.

Left ArrowRight Arrow

39.08367, -84.50855

Hourly Observations for March 22, 2016

Temp ( °F °C ) Dew Point ( °F °C ) Humidity (%) Winds ( mph kmh ) Pressure ( in mb ) Visibility ( mi km ) Precip ( " mm )
12:53 am 00:53 Clear 36 2.2 30 -1.1 79 79 N N/A 30.16 1022 10 16.0934 N/A
1:53 am 01:53 Clear 36 2.2 32 undefined 86 86 N N/A 30.16 1021 10 16.0934 N/A
2:53 am 02:53 Clear 34 1.1 31 -0.6 89 89 N N/A 30.16 1022 10 16.0934 N/A
3:53 am 03:53 Clear 33 0.6 30 -1.1 89 89 N N/A 30.16 1021 10 16.0934 N/A
4:53 am 04:53 Clear 31 -0.6 30 -1.1 96 96 N N/A 30.16 1021 10 16.0934 N/A
5:53 am 05:53 Clear 32 undefined 30 -1.1 92 92 N N/A 30.14 1021 10 16.0934 N/A
6:53 am 06:53 Clear 33 0.6 28 -2.2 82 82 SW 3 6 30.14 1021 10 16.0934 N/A
7:53 am 07:53 Sunny 34 1.1 29 -1.7 82 82 SSW 7 11 30.12 1020 10 16.0934 N/A
8:53 am 08:53 Sunny 40 4.4 31 -0.6 70 70 SSW 8 13 30.11 1020 10 16.0934 N/A
9:53 am 09:53 Sunny 45 7.2 32 undefined 61 61 SSW 12 19 30.11 1020 10 16.0934 N/A
10:53 am 10:53 Sunny 52 11.1 34 1.1 50 50 SSW 14 22 30.09 1019 10 16.0934 N/A
11:53 am 11:53 Sunny 56 13.3 33 0.6 42 42 SSW 22 35 30.06 1018 10 16.0934 N/A
12:53 pm 12:53 Sunny 59 15 33 0.6 38 38 S 23 37 30.03 1017 10 16.0934 N/A
1:53 pm 13:53 Sunny 61 16.1 33 0.6 35 35 S 25 41 30 1016 10 16.0934 N/A
2:53 pm 14:53 Sunny 63 17.2 33 0.6 33 33 SSW 22 35 29.96 1014 10 16.0934 N/A
3:53 pm 15:53 Sunny 64 17.8 31 -0.6 29 29 SW 21 33 29.92 1013 10 16.0934 N/A
4:53 pm 16:53 Sunny 64 17.8 30 -1.1 28 28 SSW 28 44 29.89 1012 10 16.0934 N/A
5:53 pm 17:53 Sunny 64 17.8 30 -1.1 28 28 SSW 22 35 29.87 1012 10 16.0934 N/A
6:53 pm 18:53 Sunny 63 17.2 28 -2.2 27 27 SSW 22 35 29.87 1011 10 16.0934 N/A
7:53 pm 19:53 Clear 60 15.6 29 -1.7 31 31 SSW 13 20 29.87 1012 10 16.0934 N/A
8:53 pm 20:53 Clear 60 15.6 29 -1.7 31 31 S 14 22 29.86 1011 10 16.0934 N/A
9:53 pm 21:53 Clear 59 15 29 -1.7 32 32 SSW 14 22 29.87 1012 10 16.0934 N/A
10:53 pm 22:53 Clear 59 15 29 -1.7 32 32 SSW 16 26 29.87 1012 10 16.0934 N/A
11:53 pm 23:53 Clear 59 15 30 -1.1 33 33 SSW 15 24 29.88 1012 10 16.0934 N/A

Powered by AerisWeather